Location: Doughton Park
(36.4224°N, 81.1835°W)
Time: 14:13:15
(UTC-04:00)

Amateur Radio Satellites - All Passes

Search period start: 01 August 2015 13:43
Search period end: 02 August 2015 13:43
Location: Doughton Park, 36.4224°N, 81.1835°W

Satellite Date Start Highest point End Downlink Frequencies (MHz)
Time Altitude Azimuth
Oscar 19 01 Aug 13:46:27 13:51:24 54° 73° (ENE) 13:56:25 437.125/150
Cosmos 2491 01 Aug 14:11:04 14:19:21 43° 285° (WNW) 14:27:30 435.465 / 435.565
BEESAT 01 Aug 14:16:10 14:19:21 18° 92° (E) 14:22:42 436.000
JAS-2 01 Aug 14:27:55 14:31:38 17° 60° (ENE) 14:35:53 435.910
SWISSCUBE 01 Aug 14:35:57 14:40:12 33° 97° (E) 14:44:30 437.505
Gurwin Techsat 1B 01 Aug 14:47:30 14:52:42 61° 74° (ENE) 14:57:58 435.225
ITUPSAT 1 01 Aug 14:56:48 15:01:27 49° 99° (E) 15:06:04 437.325
SPROUT 01 Aug 14:58:59 15:01:09 13° 293° (WNW) 15:03:06 437.525
ITAMSAT 1 01 Aug 15:07:49 15:13:02 87° 78° (ENE) 15:18:18 435.822/435.867
TISAT 1 01 Aug 15:09:07 15:11:46 16° 292° (WNW) 15:14:17 437.305
AO-7 01 Aug 15:10:07 15:16:44 28° 60° (ENE) 15:23:36 29.400- 29.500
Cosmos 2504 01 Aug 15:15:48 15:24:14 70° 266° (W) 15:32:45 435.465 / 435.565
Oscar 19 01 Aug 15:28:06 15:31:10 15° 269° (W) 15:34:00 437.125/150
DANDE 01 Aug 15:33:04 15:36:16 23° 79° (ENE) 15:40:20 436.750
CUSAT 1 01 Aug 15:49:58 15:54:19 62° 82° (E) 16:00:07 437.405
BEESAT 01 Aug 15:52:55 15:57:24 40° 288° (WNW) 16:01:48 436.000
JAS-2 01 Aug 16:09:54 16:15:50 75° 259° (WSW) 16:22:40 435.910
STARS 01 Aug 16:11:26 16:15:18 29° 97° (E) 16:19:12 437.465
SWISSCUBE 01 Aug 16:14:09 16:17:54 23° 291° (WNW) 16:21:32 437.505
GONETS M04 01 Aug 16:27:05 16:32:10 17° 63° (ENE) 16:37:48
Gurwin Techsat 1B 01 Aug 16:30:16 16:33:12 14° 270° (W) 16:35:49 435.225
ITUPSAT 1 01 Aug 16:36:01 16:38:58 16° 294° (WNW) 16:41:43 437.325
KKS-1 01 Aug 16:38:46 16:43:15 76° 284° (WNW) 16:47:41 437.445
HORYU 2 01 Aug 16:40:33 16:44:59 78° 256° (WSW) 16:49:29 437.375
AO-7 01 Aug 17:00:46 17:09:03 63° 257° (WSW) 17:17:20 29.400- 29.500
Cosmos 2504 01 Aug 17:13:07 17:15:15 11° 281° (WNW) 17:16:35 435.465 / 435.565
VERMONT LUNAR 01 Aug 17:14:46 17:15:59 12° 144° (SE) 17:17:17 437.305
DANDE 01 Aug 17:15:52 17:19:18 24° 263° (W) 17:23:27 436.750
Cubesat XI-IV 01 Aug 17:26:05 17:27:27 11° 62° (ENE) 17:29:11 437.490
MOZHAYETS 4 01 Aug 17:32:16 17:36:44 46° 99° (E) 17:41:09
SO-50 01 Aug 17:34:35 17:36:48 13° 41° (NE) 17:39:11 436.795
CUSAT 1 01 Aug 17:35:06 17:36:55 12° 265° (W) 17:38:31 437.405
PCSat 01 Aug 17:43:32 17:46:17 14° 45° (NE) 17:49:15 145.827
STARS 01 Aug 17:48:09 17:51:35 22° 291° (WNW) 17:54:56 437.465
Cosmos 2499 01 Aug 17:52:01 17:56:07 14° 61° (ENE) 18:00:53 435.465 / 435.565
CUTE-I 01 Aug 18:18:00 18:22:49 36° 70° (ENE) 18:27:42 437.470
GONETS M04 01 Aug 18:21:37 18:30:22 87° 264° (W) 18:39:09
VERMONT LUNAR 01 Aug 18:49:11 18:52:20 68° 158° (SSE) 18:55:30 437.305
Cubesat XI-IV 01 Aug 19:01:31 19:06:54 87° 256° (WSW) 19:12:19 437.490
MOZHAYETS 4 01 Aug 19:10:45 19:13:35 16° 293° (WNW) 19:16:14
PHONESAT 2.4 01 Aug 19:11:55 19:13:57 15° 144° (SE) 19:16:05 2401.200-2431.200
SO-50 01 Aug 19:13:09 19:18:08 90° 196° (SSW) 19:22:57 436.795
PCSat 01 Aug 19:25:02 19:30:29 85° 247° (WSW) 19:35:54 145.827
CUBESAT XI-V 01 Aug 19:27:30 19:32:05 66° 101° (E) 19:36:38 437.345
Cosmos 2499 01 Aug 19:42:07 19:50:56 78° 82° (E) 19:59:49 435.465 / 435.565
BRITE-PL 01 Aug 19:48:45 19:52:33 29° 73° (ENE) 19:56:15 437.365/2234.400
GOMX 1 01 Aug 19:57:39 20:00:43 20° 71° (ENE) 20:03:51 467.674
CUTE-I 01 Aug 19:58:32 20:02:59 25° 266° (W) 20:07:19 437.470
CUTE 1.7 + AOD 2 01 Aug 20:03:55 20:05:05 11° 67° (ENE) 20:06:32 437.475
HO-68 01 Aug 20:05:13 20:11:03 29° 64° (ENE) 20:17:03 435.675
STRAND 1 01 Aug 20:09:18 20:14:15 49° 100° (E) 20:19:10 437.568
CANX-2 01 Aug 20:11:01 20:13:28 16° 68° (ENE) 20:16:07 2200.000
PRISM 01 Aug 20:19:54 20:23:55 51° 100° (E) 20:27:54 437.425
GONETS M04 01 Aug 20:21:41 20:26:09 14° 280° (W) 20:29:57
VERMONT LUNAR 01 Aug 20:26:08 20:29:11 40° 353° (N) 20:32:13 437.305
AAUSAT CUBESAT 2 01 Aug 20:26:15 20:26:26 10° 66° (ENE) 20:26:53 437.432
ISS 01 Aug 20:32:16 20:34:53 23° 131° (SE) 20:37:32 145.825
PHONESAT 2.4 01 Aug 20:48:04 20:51:34 76° 158° (SSE) 20:55:05 2401.200-2431.200
RS-15 01 Aug 20:57:58 21:07:14 36° 107° (ESE) 21:17:02 29.354- 29.394
CUBESAT XI-V 01 Aug 21:07:31 21:09:02 11° 294° (WNW) 21:10:15 437.345
COMPASS 1 01 Aug 21:16:36 21:20:39 49° 75° (ENE) 21:24:46 437.405
DOVE 4 01 Aug 21:19:58 21:24:07 72° 259° (W) 21:28:16 437.250
CINEMA 3 01 Aug 21:25:01 21:29:01 50° 75° (ENE) 21:33:07 145.822/145.860
BRITE-PL 01 Aug 21:27:53 21:31:09 19° 266° (W) 21:34:12 437.365/2234.400
SEEDS 01 Aug 21:32:26 21:36:40 81° 259° (W) 21:40:57 437.485
FUNcube-1 01 Aug 21:32:51 21:35:17 16° 68° (ENE) 21:37:55 145.935
GOMX 1 01 Aug 21:35:07 21:38:47 27° 264° (W) 21:42:18 467.674
UWE-3 01 Aug 21:35:45 21:39:01 23° 70° (ENE) 21:42:25 435.000/436.395/437.385
CUTE 1.7 + AOD 2 01 Aug 21:36:21 21:40:33 57° 260° (W) 21:44:47 437.475
Cosmos 2499 01 Aug 21:37:11 21:43:20 20° 277° (W) 21:49:00 435.465 / 435.565
DELFI C3 01 Aug 21:40:19 21:43:21 21° 70° (ENE) 21:46:30 145.870
Oscar 11 01 Aug 21:42:59 21:46:56 36° 73° (ENE) 21:50:57 145.826/435.025
CANX-2 01 Aug 21:45:04 21:49:06 40° 262° (W) 21:53:08 2200.000
STRAND 1 01 Aug 21:49:40 21:53:06 18° 294° (WNW) 21:56:20 437.568
HO-68 01 Aug 21:51:36 21:58:30 50° 260° (W) 22:05:23 435.675
CUBEBUG 2 01 Aug 21:51:47 21:55:45 45° 74° (ENE) 21:59:52 437.445
HUMSAT D 01 Aug 21:54:43 21:55:40 11° 66° (ENE) 21:56:51 437.325/437.525
AAUSAT CUBESAT 2 01 Aug 21:57:24 22:01:33 62° 260° (W) 22:05:44 437.432
PRISM 01 Aug 21:57:30 21:58:56 11° 294° (WNW) 22:00:08 437.425
VERMONT LUNAR 01 Aug 22:03:10 22:06:14 44° 9° (N) 22:09:17 437.305
ISS 01 Aug 22:08:18 22:11:13 30° 326° (NNW) 22:14:09 145.825
DX 1 01 Aug 22:15:18 22:17:35 15° 67° (ENE) 22:20:04 434.975-435.025
PHONESAT 2.4 01 Aug 22:26:19 22:29:42 43° 354° (N) 22:33:04 2401.200-2431.200
Cosmos 2491 01 Aug 22:29:49 22:34:04 15° 61° (ENE) 22:38:55 435.465 / 435.565
VELOX 1 01 Aug 22:32:32 22:34:26 13° 67° (ENE) 22:36:32 145.980
ZACube-1 01 Aug 22:45:40 22:49:49 68° 259° (WSW) 22:54:05 437.345
M-CUBED/EXP-1 PRIME 01 Aug 22:46:28 22:51:05 46° 103° (ESE) 22:55:32 437.505
ESTCUBE 1 01 Aug 22:46:38 22:48:41 13° 67° (ENE) 22:50:58 437.505/2401.250
COMPASS 1 01 Aug 22:55:03 22:56:40 12° 270° (W) 22:58:00 437.405
50 SAT 01 Aug 23:03:44 23:07:08 30° 73° (ENE) 23:10:38 437.505
TIGRISAT 01 Aug 23:05:32 23:08:56 20° 93° (E) 23:12:30 435.000
CINEMA 3 01 Aug 23:05:50 23:06:40 10° 271° (W) 23:07:12 145.822/145.860
FUNcube-1 01 Aug 23:07:24 23:11:18 38° 262° (W) 23:15:16 145.935
ANTELSAT 01 Aug 23:07:29 23:11:05 22° 94° (E) 23:14:49 437.575/2403.000
RS-15 01 Aug 23:08:24 23:19:08 59° 307° (NW) 23:30:14 29.354- 29.394
UWE-3 01 Aug 23:11:59 23:15:28 25° 266° (W) 23:18:56 435.000/436.395/437.385
DELFI C3 01 Aug 23:14:53 23:18:18 25° 265° (W) 23:21:41 145.870
AUBIESAT-1 01 Aug 23:15:06 23:19:52 81° 107° (ESE) 23:24:27 437.475
UKube-1 01 Aug 23:19:55 23:24:13 74° 76° (ENE) 23:28:32 .
Oscar 11 01 Aug 23:20:24 23:23:16 17° 268° (W) 23:26:00 145.826/435.025
HUMSAT D 01 Aug 23:26:53 23:30:56 56° 260° (W) 23:35:03 437.325/437.525
AISAT 01 Aug 23:27:26 23:31:45 56° 74° (ENE) 23:36:04 437.250
CUBEBUG 2 01 Aug 23:31:02 23:32:49 12° 271° (W) 23:34:23 437.445
BEESAT 2 01 Aug 23:34:20 23:37:58 32° 114° (ESE) 23:41:41 435.950
CUBEBUG 1 01 Aug 23:39:38 23:43:42 40° 73° (ENE) 23:47:48 437.445
VERMONT LUNAR 01 Aug 23:39:55 23:43:02 54° 205° (SSW) 23:46:06 437.305
POLYITAN 1 01 Aug 23:46:15 23:49:24 20° 94° (E) 23:52:40 437.675
DX 1 01 Aug 23:49:20 23:53:30 44° 261° (W) 23:57:40 434.975-435.025
AIST 1 01 Aug 23:50:43 23:54:56 63° 81° (E) 23:59:09
UNISAT 6 01 Aug 23:58:06 00:02:49 81° 100° (E) 00:07:33 437.425
POPSAT HIP 1 02 Aug 00:02:32 00:06:18 31° 96° (E) 00:10:07 437.405
BUGSAT 1 02 Aug 00:03:30 00:06:16 18° 93° (E) 00:09:11 437.445
PHONESAT 2.4 02 Aug 00:04:34 00:08:00 50° 10° (N) 00:11:25 2401.200-2431.200
VELOX 1 02 Aug 00:06:16 00:10:35 52° 260° (W) 00:14:54 145.980
QB50P2 02 Aug 00:10:12 00:14:13 39° 98° (E) 00:18:15 145.880/145.840
BEESAT 3 02 Aug 00:12:43 00:16:44 66° 301° (WNW) 00:20:49 437.485
SPROUT 02 Aug 00:13:18 00:16:52 27° 71° (ENE) 00:20:30 437.525
ESTCUBE 1 02 Aug 00:20:42 00:25:09 54° 261° (W) 00:29:36 437.505/2401.250
M-CUBED/EXP-1 PRIME 02 Aug 00:22:06 00:25:30 19° 297° (WNW) 00:28:40 437.505
TISAT 1 02 Aug 00:22:40 00:25:44 21° 70° (ENE) 00:28:55 437.305
Cosmos 2491 02 Aug 00:23:46 00:32:32 84° 83° (E) 00:41:16 435.465 / 435.565
DUCHIFAT 1 02 Aug 00:33:44 00:37:59 72° 101° (ESE) 00:42:14 145.980
QB50P1 02 Aug 00:37:35 00:41:51 84° 102° (ESE) 00:46:08 145.935-145.965
NANOSAT C BR1 02 Aug 00:38:30 00:42:46 85° 102° (ESE) 00:47:02 145.865
50 SAT 02 Aug 00:39:22 00:41:49 16° 268° (W) 00:44:08 437.505
YUBILEINY 02 Aug 00:41:22 00:49:41 54° 91° (E) 00:58:08 435.215
TIGRISAT 02 Aug 00:41:29 00:45:47 36° 288° (WNW) 00:50:03 435.000
ANTELSAT 02 Aug 00:43:41 00:47:54 33° 288° (WNW) 00:52:05 437.575/2403.000
AUBIESAT-1 02 Aug 00:52:28 00:53:56 11° 301° (WNW) 00:55:06 437.475
O/OREOS (USA 219) 02 Aug 01:03:02 01:05:43 16° 101° (E) 01:08:37 437.305
AISAT 02 Aug 01:07:27 01:08:44 11° 270° (W) 01:09:45 437.250
AIST 2 02 Aug 01:11:38 01:15:53 85° 122° (ESE) 01:20:10 435.215
BEESAT 2 02 Aug 01:12:53 01:16:05 21° 310° (NW) 01:19:14 435.950
CUBEBUG 1 02 Aug 01:17:40 01:20:17 15° 268° (W) 01:22:41 437.445
BEESAT 02 Aug 01:20:46 01:23:43 17° 67° (ENE) 01:26:51 436.000
POLYITAN 1 02 Aug 01:21:35 01:25:20 29° 288° (WNW) 01:29:00 437.675
RS-15 02 Aug 01:27:12 01:34:51 19° 336° (NNW) 01:42:21 29.354- 29.394
BUGSAT 1 02 Aug 01:38:12 01:41:48 29° 288° (WNW) 01:45:21 437.445
POPSAT HIP 1 02 Aug 01:38:51 01:41:59 20° 290° (WNW) 01:45:01 437.405
SWISSCUBE 02 Aug 01:40:11 01:44:16 29° 70° (ENE) 01:48:26 437.505
PHONESAT 2.4 02 Aug 01:42:36 01:46:00 49° 206° (SSW) 01:49:22 2401.200-2431.200
QB50P2 02 Aug 01:47:10 01:49:49 16° 292° (WNW) 01:52:17 145.880/145.840
SPROUT 02 Aug 01:49:35 01:52:56 22° 266° (W) 01:56:12 437.525
Cosmos 2504 02 Aug 01:55:56 01:58:59 14° 80° (E) 02:02:39 435.465 / 435.565
TISAT 1 02 Aug 01:57:45 02:01:21 27° 264° (W) 02:04:56 437.305
ITUPSAT 1 02 Aug 02:01:04 02:05:35 43° 72° (ENE) 02:10:10 437.325
Oscar 19 02 Aug 02:01:09 02:05:11 23° 94° (E) 02:09:21 437.125/150
Cosmos 2491 02 Aug 02:23:11 02:28:27 17° 279° (W) 02:33:09 435.465 / 435.565
YUBILEINY 02 Aug 02:39:29 02:46:58 30° 290° (WNW) 02:54:15 435.215
O/OREOS (USA 219) 02 Aug 02:40:39 02:44:51 39° 295° (WNW) 02:49:04 437.305
AIST 2 02 Aug 02:54:01 02:55:06 11° 317° (NW) 02:55:59 435.215
BEESAT 02 Aug 02:56:36 03:01:13 46° 261° (W) 03:05:50 436.000
ISS 02 Aug 03:02:05 03:04:01 15° 25° (NNE) 03:06:00 145.825
STARS 02 Aug 03:06:34 03:09:39 20° 69° (ENE) 03:12:52 437.465
Gurwin Techsat 1B 02 Aug 03:06:42 03:11:17 30° 95° (E) 03:15:56 435.225
SWISSCUBE 02 Aug 03:18:05 03:22:06 26° 265° (W) 03:26:03 437.505
JAS-2 02 Aug 03:22:33 03:28:17 23° 89° (E) 03:34:12 435.910
ITAMSAT 1 02 Aug 03:23:34 03:28:20 37° 97° (E) 03:33:07 435.822/435.867
KKS-1 02 Aug 03:34:12 03:38:35 71° 76° (ENE) 03:43:00 437.445
Oscar 19 02 Aug 03:39:54 03:44:39 37° 289° (WNW) 03:49:21 437.125/150
ITUPSAT 1 02 Aug 03:40:29 03:43:43 17° 268° (W) 03:46:47 437.325
Cosmos 2504 02 Aug 03:43:05 03:50:10 84° 277° (W) 03:57:48 435.465 / 435.565
RS-15 02 Aug 03:47:34 03:53:42 16° 13° (NNE) 04:00:14 29.354- 29.394
JUGNU 02 Aug 04:19:51 04:22:51 14° 174° (S) 04:25:52 437.505
MOZHAYETS 4 02 Aug 04:31:46 04:35:52 33° 72° (ENE) 04:40:03
HORYU 2 02 Aug 04:34:50 04:38:27 24° 95° (E) 04:42:10 437.375
ISS 02 Aug 04:37:33 04:40:49 76° 222° (SW) 04:44:03 145.825
STARS 02 Aug 04:41:58 04:45:54 32° 263° (W) 04:49:48 437.465
DANDE 02 Aug 04:43:57 04:46:51 27° 98° (E) 04:49:21 436.750
Gurwin Techsat 1B 02 Aug 04:46:37 04:51:14 30° 291° (WNW) 04:55:46 435.225
CUSAT 1 02 Aug 04:57:03 05:00:03 86° 275° (W) 05:02:41 437.405
ITAMSAT 1 02 Aug 05:03:32 05:07:39 23° 292° (WNW) 05:11:36 435.822/435.867
AO-7 02 Aug 05:05:14 05:13:20 54° 102° (ESE) 05:21:24 29.400- 29.500
JAS-2 02 Aug 05:06:06 05:13:56 69° 286° (WNW) 05:21:31 435.910
GONETS M04 02 Aug 05:25:46 05:31:36 21° 83° (E) 05:37:53
Cosmos 2504 02 Aug 05:40:52 05:43:56 12° 299° (WNW) 05:46:31 435.465 / 435.565
RS-15 02 Aug 06:00:13 06:10:54 40° 44° (NE) 06:22:08 29.354- 29.394
JUGNU 02 Aug 06:07:51 06:11:06 15° 184° (S) 06:14:18 437.505
MOZHAYETS 4 02 Aug 06:09:35 06:13:10 21° 267° (W) 06:16:38
HORYU 2 02 Aug 06:11:13 06:15:04 27° 290° (WNW) 06:18:50 437.375
SRMSAT 02 Aug 06:13:31 06:16:31 14° 174° (S) 06:19:33 437.500
CUBESAT XI-V 02 Aug 06:28:12 06:32:40 47° 74° (ENE) 06:37:11 437.345
CUTE-I 02 Aug 06:38:37 06:41:54 17° 91° (E) 06:45:24 437.470
JAS-2 02 Aug 06:54:10 06:57:46 13° 302° (WNW) 07:00:50 435.910
AO-7 02 Aug 06:58:38 07:05:49 32° 298° (WNW) 07:12:46 29.400- 29.500
PRISM 02 Aug 07:07:37 07:11:09 27° 71° (ENE) 07:14:45 437.425
GONETS M04 02 Aug 07:19:03 07:27:44 70° 279° (W) 07:36:25
Cubesat XI-IV 02 Aug 07:21:36 07:26:42 46° 99° (E) 07:31:48 437.490
STRAND 1 02 Aug 07:22:34 07:27:33 55° 74° (ENE) 07:32:36 437.568
BRITE-PL 02 Aug 07:56:49 07:58:15 12° 91° (E) 08:00:01 437.365/2234.400
BEESAT 2 02 Aug 07:57:19 07:58:31 11° 44° (NE) 07:59:54 435.950
SRMSAT 02 Aug 08:01:44 08:04:55 15° 184° (S) 08:08:04 437.500
CUBESAT XI-V 02 Aug 08:07:41 08:10:26 15° 270° (W) 08:12:55 437.345
RS-15 02 Aug 08:12:28 08:24:10 65° 246° (WSW) 08:36:08 29.354- 29.394
Cosmos 2499 02 Aug 08:15:35 08:22:48 66° 93° (E) 08:30:40 435.465 / 435.565
CUTE-I 02 Aug 08:17:11 08:22:21 52° 287° (WNW) 08:27:27 437.470
PCSat 02 Aug 08:22:56 08:26:20 18° 106° (ESE) 08:29:58 145.827
BEESAT 3 02 Aug 08:33:43 08:37:21 31° 54° (NE) 08:40:57 437.485
PRISM 02 Aug 08:43:22 08:46:36 21° 266° (W) 08:49:43 437.425
Cubesat XI-IV 02 Aug 09:02:37 09:06:31 20° 294° (WNW) 09:10:13 437.490
STRAND 1 02 Aug 09:04:08 09:07:11 15° 269° (W) 09:09:57 437.568
SEEDS 02 Aug 09:20:07 09:23:12 20° 93° (E) 09:26:23 437.485
DOVE 4 02 Aug 09:20:38 09:24:58 36° 97° (E) 09:29:34 437.250
HO-68 02 Aug 09:22:00 09:28:30 37° 97° (E) 09:35:06 435.675
CINEMA 3 02 Aug 09:22:44 09:25:45 17° 92° (E) 09:29:00 145.822/145.860
GONETS M04 02 Aug 09:23:42 09:26:36 11° 302° (WNW) 09:28:45
CUTE 1.7 + AOD 2 02 Aug 09:24:23 09:28:06 28° 96° (E) 09:31:49 437.475
SO-50 02 Aug 09:24:49 09:29:23 54° 116° (ESE) 09:34:09 436.795
M-CUBED/EXP-1 PRIME 02 Aug 09:32:06 09:35:46 36° 67° (ENE) 09:39:48 437.505
CANX-2 02 Aug 09:32:42 09:36:46 40° 98° (E) 09:40:48 2200.000
BRITE-PL 02 Aug 09:32:44 09:37:07 57° 284° (WNW) 09:41:48 437.365/2234.400
BEESAT 2 02 Aug 09:33:04 09:37:07 71° 242° (WSW) 09:41:05 435.950
AIST 2 02 Aug 09:36:10 09:39:40 26° 51° (NE) 09:43:11 435.215
GOMX 1 02 Aug 09:37:30 09:42:07 88° 280° (W) 09:47:03 467.674
AAUSAT CUBESAT 2 02 Aug 09:43:19 09:46:43 24° 95° (E) 09:50:08 437.432
CUBEBUG 2 02 Aug 09:46:37 09:48:45 13° 90° (E) 09:51:11 437.445
AUBIESAT-1 02 Aug 09:59:57 10:03:56 66° 71° (ENE) 10:08:16 437.475
TIGRISAT 02 Aug 10:03:30 10:05:19 13° 66° (ENE) 10:07:23 435.000
PCSat 02 Aug 10:04:04 10:09:22 54° 301° (WNW) 10:14:41 145.827
ANTELSAT 02 Aug 10:05:25 10:07:37 14° 67° (ENE) 10:10:03 437.575/2403.000
Cosmos 2499 02 Aug 10:11:18 10:16:51 21° 294° (WNW) 10:22:22 435.465 / 435.565
BEESAT 3 02 Aug 10:12:11 10:15:05 19° 249° (WSW) 10:17:49 437.485
RS-15 02 Aug 10:31:30 10:35:01 11° 261° (W) 10:37:04 29.354- 29.394
ZACube-1 02 Aug 10:36:51 10:40:46 28° 95° (E) 10:44:46 437.345
COMPASS 1 02 Aug 10:37:49 10:42:00 59° 284° (WNW) 10:46:07 437.405
POLYITAN 1 02 Aug 10:38:40 10:40:03 12° 67° (ENE) 10:41:40 437.675
POPSAT HIP 1 02 Aug 10:53:49 10:56:30 17° 69° (ENE) 10:59:21 437.405
UNISAT 6 02 Aug 10:54:38 10:58:49 50° 74° (ENE) 11:03:08 437.425
SEEDS 02 Aug 10:55:18 10:59:02 29° 288° (WNW) 11:02:40 437.485
YUBILEINY 02 Aug 10:55:29 11:01:56 23° 67° (ENE) 11:08:45 435.215
DELFI C3 02 Aug 10:55:37 10:59:33 48° 99° (E) 11:03:27 145.870
FUNcube-1 02 Aug 10:57:38 11:02:01 47° 99° (E) 11:06:27 145.935
CINEMA 3 02 Aug 10:58:37 11:03:07 44° 286° (WNW) 11:07:46 145.822/145.860
DOVE 4 02 Aug 10:59:00 11:02:33 21° 290° (WNW) 11:06:06 437.250
CUTE 1.7 + AOD 2 02 Aug 11:00:33 11:03:52 21° 290° (WNW) 11:07:02 437.475
QB50P2 02 Aug 11:01:15 11:04:27 22° 70° (ENE) 11:07:45 145.880/145.840
UWE-3 02 Aug 11:02:58 11:07:37 75° 101° (ESE) 11:12:17 435.000/436.395/437.385
SO-50 02 Aug 11:06:52 11:10:19 19° 314° (NW) 11:13:43 436.795
M-CUBED/EXP-1 PRIME 02 Aug 11:08:07 11:10:47 16° 265° (W) 11:13:26 437.505
Oscar 11 02 Aug 11:08:23 11:12:45 76° 284° (WNW) 11:17:05 145.826/435.025
HO-68 02 Aug 11:09:41 11:16:14 39° 293° (WNW) 11:22:41 435.675
CANX-2 02 Aug 11:09:44 11:12:22 16° 292° (WNW) 11:14:50 2200.000
UKube-1 02 Aug 11:11:22 11:13:41 15° 92° (E) 11:16:12 .
HUMSAT D 02 Aug 11:13:33 11:17:14 28° 95° (E) 11:20:59 437.325/437.525
O/OREOS (USA 219) 02 Aug 11:14:11 11:17:45 22° 60° (ENE) 11:21:25 437.305
AIST 2 02 Aug 11:14:42 11:18:10 25° 247° (WSW) 11:21:32 435.215
AAUSAT CUBESAT 2 02 Aug 11:18:50 11:22:14 24° 289° (WNW) 11:25:32 437.432
CUBEBUG 2 02 Aug 11:21:13 11:25:47 54° 285° (WNW) 11:30:24 437.445
AISAT 02 Aug 11:22:20 11:24:16 13° 91° (E) 11:26:27 437.250
DUCHIFAT 1 02 Aug 11:23:39 11:27:28 36° 73° (ENE) 11:31:21 145.980
QB50P1 02 Aug 11:27:46 11:31:44 43° 74° (ENE) 11:35:44 145.935-145.965
NANOSAT C BR1 02 Aug 11:28:28 11:32:25 43° 74° (ENE) 11:36:25 145.865
Cosmos 2491 02 Aug 11:28:42 11:33:59 19° 82° (E) 11:39:45 435.465 / 435.565
TIGRISAT 02 Aug 11:37:26 11:41:39 52° 261° (W) 11:45:58 435.000
ANTELSAT 02 Aug 11:39:50 11:44:01 47° 261° (W) 11:48:18 437.575/2403.000
DX 1 02 Aug 11:40:07 11:44:06 35° 98° (E) 11:48:06 434.975-435.025
VELOX 1 02 Aug 11:59:18 12:03:18 34° 97° (E) 12:07:19 145.980
POLYITAN 1 02 Aug 12:11:27 12:15:32 52° 260° (W) 12:19:40 437.675
ZACube-1 02 Aug 12:13:16 12:17:00 25° 289° (WNW) 12:20:41 437.345
50 SAT 02 Aug 12:15:21 12:19:19 68° 101° (E) 12:23:15 437.505
ESTCUBE 1 02 Aug 12:16:01 12:20:10 37° 98° (E) 12:24:19 437.505/2401.250
AIST 1 02 Aug 12:17:23 12:21:29 42° 93° (E) 12:25:35
BUGSAT 1 02 Aug 12:25:08 12:29:09 61° 259° (W) 12:33:08 437.445
POPSAT HIP 1 02 Aug 12:28:20 12:32:09 33° 263° (W) 12:35:58 437.405
DELFI C3 02 Aug 12:32:40 12:34:14 12° 293° (WNW) 12:35:34 145.870
UNISAT 6 02 Aug 12:34:09 12:36:00 12° 271° (W) 12:37:37 437.425
FUNcube-1 02 Aug 12:35:14 12:37:59 15° 292° (WNW) 12:40:34 145.935
QB50P2 02 Aug 12:36:39 12:40:14 26° 265° (W) 12:43:46 145.880/145.840
UWE-3 02 Aug 12:42:48 12:43:36 10° 294° (WNW) 12:44:06 435.000/436.395/437.385
UKube-1 02 Aug 12:45:58 12:50:03 41° 287° (WNW) 12:54:05 .
HUMSAT D 02 Aug 12:49:26 12:52:50 22° 290° (WNW) 12:56:09 437.325/437.525
YUBILEINY 02 Aug 12:50:54 12:59:41 70° 266° (W) 13:08:24 435.215
O/OREOS (USA 219) 02 Aug 12:53:10 12:57:14 31° 256° (WSW) 13:01:15 437.305
AISAT 02 Aug 12:56:55 13:01:10 48° 287° (WNW) 13:05:25 437.250
DUCHIFAT 1 02 Aug 13:00:55 13:03:28 15° 268° (W) 13:05:50 145.980
QB50P1 02 Aug 13:05:48 13:07:52 13° 269° (W) 13:09:43 145.935-145.965
NANOSAT C BR1 02 Aug 13:06:28 13:08:31 13° 269° (W) 13:10:21 145.865
CUBEBUG 1 02 Aug 13:06:46 13:11:05 67° 285° (WNW) 13:15:22 437.445
Oscar 19 02 Aug 13:15:42 13:19:51 27° 69° (ENE) 13:24:08 437.125/150
DX 1 02 Aug 13:17:07 13:20:06 18° 292° (WNW) 13:22:56 434.975-435.025
Cosmos 2491 02 Aug 13:21:12 13:29:59 79° 278° (W) 13:38:46 435.465 / 435.565
VELOX 1 02 Aug 13:36:27 13:39:38 19° 291° (WNW) 13:42:41 145.980
